Theta_e
319 318 316 316 315 314 314 314 314 314 313 313 314 314 313 313 313 314 315 315 315 315 315 316 318 321 315 305 302 311 340 342 326 311 306 302 300 300 299 298 300 298 302 303 304 302 307
316 315 314 315 314 313 313 313 313 313 313 313 313 313 312 312 313 314 314 314 315 315 315 316 319 321 308 296 310 320 318 313 311 307 306 304 305 306 302 300 298 303 300 303 304 302 304
314 314 314 314 313 313 312 313 313 312 312 313 313 313 312 313 313 314 314 314 313 314 315 317 322 317 309 300 314 318 311 306 309 308 306 306 307 305 304 301 303 303 300 302 301 302 301
314 313 314 313 313 312 312 312 312 312 312 313 313 312 312 313 313 314 314 313 313 315 317 319 323 314 302 311 313 311 313 314 310 309 308 309 310 305 302 304 304 301 297 294 301 302 305
313 313 313 313 312 312 312 312 312 311 311 312 312 311 311 312 313 313 312 312 314 317 318 323 312 310 299 317 314 314 312 311 312 310 309 314 307 304 304 298 295 296 292 295 299 301 302
313 313 312 312 312 312 311 311 311 311 310 311 311 311 311 311 312 312 311 312 313 317 320 321 317 304 305 307 313 314 313 314 312 309 308 306 303 299 298 295 290 292 292 294 296 303 300
312 312 312 312 312 312 312 311 311 310 310 310 311 310 310 311 311 310 307 305 301 303 308 305 305 305 308 312 317 311 313 311 312 305 299 302 297 294 297 299 299 298 297 296 300 304 300
312 312 312 313 312 311 310 310 311 310 310 309 309 311 310 310 310 309 304 305 304 303 296 306 309 309 312 316 311 315 313 305 306 299 300 298 294 300 303 303 301 300 297 297 301 304 300
312 312 312 312 312 310 310 310 310 310 310 310 310 310 310 310 308 305 301 304 307 305 296 302 305 304 306 310 309 312 309 305 303 300 298 295 299 305 304 302 300 299 296 297 298 300 300
310 311 311 311 311 310 309 310 309 309 310 310 310 309 309 309 303 300 303 309 308 304 293 301 303 305 305 309 308 315 312 306 302 301 301 297 302 302 302 302 302 295 302 302 301 297 291
309 309 310 311 311 311 310 309 308 308 309 309 309 309 309 308 298 298 305 306 307 305 284 307 304 309 306 305 307 308 312 307 301 302 301 299 299 300 300 301 304 300 304 302 301 295 292
309 309 309 309 310 310 310 309 308 309 309 309 309 309 308 301 297 301 304 303 301 293 284 303 305 302 300 305 307 306 306 307 306 301 302 301 305 303 302 305 305 306 303 299 297 293 288
308 308 308 307 308 309 309 309 309 308 309 309 308 308 305 303 295 299 302 300 289 285 300 301 300 301 299 300 303 305 300 297 295 292 294 299 300 303 306 300 302 300 294 287 287 287 287
309 308 307 308 309 308 308 309 308 308 309 308 307 305 302 303 300 300 300 292 283 294 295 303 301 300 299 301 301 302 299 295 297 297 293 292 292 301 305 301 299 297 295 288 283 285 288
309 308 307 307 308 308 308 308 308 308 308 306 305 295 296 300 304 301 295 285 286 293 299 299 298 296 297 302 299 300 298 298 298 299 294 292 294 303 304 304 302 297 293 297 291 291 289
308 308 308 308 308 307 308 308 308 308 307 305 295 292 295 302 306 300 291 288 291 300 300 299 292 297 291 295 295 296 296 302 300 301 301 297 292 301 303 304 303 299 301 292 290 284 283
309 309 309 309 308 308 308 308 308 308 306 305 293 294 303 305 305 295 286 288 295 301 302 298 295 294 295 294 295 294 298 302 306 303 301 300 294 297 299 297 297 296 294 295 293 292 286
309 309 309 309 308 308 308 308 308 307 305 298 291 288 303 305 293 291 288 294 298 299 302 300 299 297 295 296 294 294 297 300 307 303 297 299 295 293 296 302 304 300 298 295 290 289 292
309 308 308 309 308 307 307 307 307 307 305 293 288 291 302 303 289 289 295 298 300 299 299 299 298 300 299 294 291 296 300 305 304 302 298 299 293 289 292 296 300 298 299 298 295 293 290
307 307 307 308 307 306 307 307 307 306 305 294 288 287 293 297 296 292 291 293 294 301 299 300 299 300 297 294 295 293 296 302 304 303 315 309 296 293 292 295 297 297 300 299 297 291 292
306 306 307 306 305 305 306 306 306 306 305 294 289 287 291 287 291 292 292 294 293 294 301 301 297 297 295 292 292 292 295 298 302 308 306 302 294 296 299 301 300 300 302 301 296 296 294
306 306 306 305 304 305 306 306 306 306 305 292 287 288 291 290 293 291 292 291 293 295 295 294 294 296 296 293 295 294 297 296 296 300 299 301 293 296 298 300 300 299 301 301 301 299 300
305 305 304 304 305 304 305 305 306 306 302 290 296 294 290 291 290 289 289 291 292 294 295 298 297 296 294 298 301 302 302 301 300 298 296 295 295 293 291 299 299 295 300 300 300 302 301
305 305 304 304 304 304 304 304 305 306 304 294 293 292 287 285 288 289 291 292 292 294 292 297 298 294 300 305 305 304 301 302 302 298 298 293 295 297 292 294 288 300 303 304 303 305 307
305 305 304 305 304 304 304 304 304 305 306 296 293 294 289 283 288 289 291 290 291 292 293 297 299 301 301 301 297 294 294 294 298 298 295 296 295 293 292 290 296 300 303 302 302 301 308
304 305 304 304 304 304 304 304 304 305 306 298 295 297 293 285 283 291 288 289 286 288 291 295 299 301 300 299 296 288 287 292 290 294 299 296 298 296 294 290 289 298 306 312 307 298 309
304 303 304 304 304 304 303 304 304 305 306 297 294 298 296 288 290 290 286 287 291 288 286 291 294 294 301 295 292 290 290 298 292 291 290 291 296 293 293 293 296 306 310 311 297 298 311
303 303 303 303 303 303 303 304 304 304 305 299 294 295 296 292 291 294 295 290 290 289 285 288 289 296 295 293 291 292 292 295 294 297 294 293 293 293 295 292 292 310 308 302 304 308 312
302 302 302 302 303 303 302 302 303 303 304 303 292 296 301 295 292 297 297 298 297 295 290 289 290 292 297 291 289 289 288 293 294 292 300 292 299 296 299 298 305 309 311 314 312 312 312
Wind_Speed
11 12 13 13 14 14 16 16 17 17 18 18 19 20 21 21 22 21 20 20 20 19 17 15 12 8 4 2 14 6 6 6 9 6 7 5 2 4 3 4 3 6 8 8 11 7 8
10 11 12 13 14 15 16 16 17 18 18 19 20 21 22 22 22 21 20 20 19 18 16 14 9 2 1 4 8 6 8 6 6 8 7 8 9 8 6 4 3 7 5 10 9 12 7
9 10 11 11 13 14 15 16 17 18 18 18 19 20 23 23 23 23 22 21 21 19 17 11 7 4 2 17 3 7 3 3 7 7 6 9 4 1 4 8 5 5 6 9 6 5 3
10 10 10 11 12 14 15 16 18 19 19 19 20 21 23 24 24 24 24 24 23 21 12 7 5 3 10 6 8 11 6 7 6 7 8 7 7 5 5 7 9 6 3 4 8 3 8
8 9 10 11 12 13 15 16 17 19 20 21 20 22 24 25 25 26 26 27 24 12 4 7 3 2 12 11 4 12 10 9 7 6 7 9 2 6 4 4 7 6 4 6 11 2 4
6 7 9 10 11 13 14 16 17 19 20 22 22 23 24 26 26 26 28 24 9 2 3 5 5 3 6 5 5 5 9 10 6 4 5 3 2 1 4 5 6 5 3 6 7 12 5
6 7 8 9 11 13 14 16 17 19 20 22 23 24 26 27 27 25 16 5 6 4 1 7 6 7 9 6 6 4 6 6 5 4 6 5 2 7 9 7 7 5 5 9 14 16 8
7 8 9 9 10 12 14 14 16 18 20 22 23 25 27 29 30 27 1 4 3 9 10 11 17 20 23 2 8 10 6 6 6 7 4 2 8 10 8 7 6 7 8 17 11 6 4
8 8 9 10 9 11 13 15 16 17 18 20 22 24 27 31 34 4 4 4 8 9 4 9 10 10 11 11 10 10 10 7 5 5 6 9 10 7 11 10 7 10 6 9 8 5 2
7 9 9 9 8 9 13 15 17 19 19 19 21 22 25 34 6 7 6 12 15 3 4 9 6 9 4 6 6 10 9 8 4 10 5 8 11 12 9 12 8 8 8 9 5 6 4
8 9 9 8 9 9 11 14 17 19 19 20 21 21 20 17 6 5 7 14 13 5 4 2 4 3 8 12 4 6 4 5 9 6 6 9 3 7 8 15 9 12 8 5 2 3 2
8 8 9 9 11 11 10 12 15 17 18 19 21 21 22 5 2 9 11 13 3 6 8 7 7 7 8 4 4 6 6 4 7 5 5 8 4 5 10 16 9 9 2 8 6 4 2
7 8 9 10 11 11 11 13 15 17 18 20 22 24 17 4 6 2 8 5 6 3 5 4 6 6 5 8 6 1 2 4 7 5 11 7 11 6 6 8 5 4 7 4 6 6 8
7 7 8 9 10 11 13 13 15 16 18 20 24 27 6 8 5 2 4 6 3 5 7 6 9 10 9 6 10 7 7 6 6 4 4 7 12 11 8 9 11 8 11 8 7 4 8
8 7 7 9 10 11 12 13 15 17 18 21 22 5 5 6 10 3 6 3 8 6 4 7 8 5 7 6 10 10 12 13 11 12 11 5 8 7 6 4 9 5 4 10 7 1 2
9 9 9 9 9 12 12 13 15 16 18 21 4 4 6 2 10 4 6 5 5 4 8 5 1 3 6 8 7 8 4 5 9 14 10 9 10 13 16 3 6 6 6 4 4 4 5
10 11 11 9 9 10 11 12 13 15 17 20 2 4 6 8 5 6 4 7 4 11 9 7 5 7 4 7 1 3 6 10 1 6 6 14 7 16 5 6 10 5 1 5 6 6 8
12 11 11 11 8 8 10 10 11 13 17 7 2 2 3 3 4 2 3 4 4 6 14 8 4 6 6 4 7 4 7 5 7 4 5 10 7 12 20 13 7 8 8 8 7 6 3
10 11 11 11 7 7 9 8 10 10 10 2 2 4 6 5 3 2 5 6 7 11 9 4 5 8 11 7 5 6 2 1 7 2 5 7 3 6 9 9 2 7 7 8 4 3 9
10 12 12 10 7 6 7 7 8 8 8 3 2 3 5 4 1 6 2 5 4 7 10 6 6 6 5 8 7 9 11 7 8 9 4 4 7 10 17 16 6 5 5 9 9 5 6
10 11 10 7 7 7 8 5 6 6 7 3 0 5 1 4 2 3 1 4 9 7 2 3 4 6 6 6 8 6 7 16 9 4 2 1 6 5 18 19 15 12 8 6 5 7 9
9 8 7 7 8 8 8 4 5 3 4 2 1 2 5 2 4 1 3 3 4 4 2 8 2 9 4 4 6 9 10 5 6 8 2 1 5 8 13 15 18 14 11 10 5 5 6
11 10 8 9 8 7 5 5 4 3 5 1 2 3 3 4 3 1 4 3 8 10 6 3 3 3 7 5 13 15 17 15 17 14 10 2 1 4 7 12 7 7 19 10 5 6 8
11 11 9 9 9 8 8 6 5 4 6 3 3 1 2 4 2 1 8 8 11 6 5 4 4 1 6 17 17 11 12 16 17 17 9 8 5 3 5 6 6 13 8 10 10 7 6
12 11 11 12 10 9 9 9 7 5 7 3 3 1 0 4 3 8 5 4 7 7 4 3 4 2 6 7 6 8 7 7 13 9 8 8 5 2 4 5 8 11 2 7 8 10 7
12 12 12 11 9 9 6 7 8 7 8 3 3 2 2 1 5 4 4 6 4 4 6 4 8 5 4 3 4 6 6 4 7 5 7 9 6 7 1 4 12 3 5 2 6 7 2
11 10 9 10 10 10 7 8 8 7 6 4 3 2 0 2 6 3 3 2 4 4 3 4 6 8 1 3 5 7 10 3 9 9 5 4 3 13 9 7 9 5 3 5 8 11 6
10 9 9 8 9 9 7 6 7 6 5 4 4 2 2 3 6 7 6 4 5 2 2 5 6 2 3 4 4 4 4 4 8 18 7 9 7 6 3 5 14 4 3 11 8 1 11
9 7 7 8 9 9 7 6 6 6 8 4 2 2 2 3 5 9 14 15 13 15 4 3 3 2 1 1 4 5 5 5 8 10 6 8 12 9 11 10 5 3 5 2 4 8 5
Wind_Direction
28 17 13 15 16 13 11 8 5 2 358 354 351 348 344 339 336 330 325 324 321 319 320 319 314 305 304 348 250 270 61 117 134 138 187 197 217 166 243 223 341 190 271 277 268 254 222
16 11 12 13 13 11 9 5 1 357 354 350 348 344 339 336 331 326 322 319 313 312 314 312 298 255 165 263 252 191 128 136 142 159 193 156 217 188 266 274 139 248 276 268 288 277 159
21 18 17 15 13 8 5 2 359 354 351 347 344 339 335 331 328 325 321 315 311 308 308 299 272 215 234 236 166 79 133 239 174 176 195 219 201 97 4 314 247 259 336 327 276 273 92
14 16 14 15 12 8 4 1 357 353 350 345 342 338 333 329 327 324 319 313 307 304 298 271 193 214 248 246 259 281 208 274 233 206 206 230 169 230 190 245 350 344 43 333 281 306 279
14 12 13 11 8 5 0 357 355 353 349 346 341 337 332 329 327 324 318 312 306 298 205 138 137 182 267 300 192 232 171 207 221 225 237 258 139 215 306 73 2 356 262 307 314 333 269
20 16 9 5 3 359 354 353 352 350 347 344 340 335 332 329 327 325 321 308 283 8 162 197 257 348 271 273 249 208 172 176 195 208 322 230 90 70 19 80 222 253 336 298 273 286 218
13 8 3 358 354 352 348 347 347 347 345 343 340 336 333 329 327 325 336 360 11 9 176 214 211 254 286 335 291 242 203 150 171 112 194 279 98 230 239 220 212 243 256 277 287 283 271
356 350 344 343 348 348 346 345 343 343 342 340 338 335 333 329 324 323 126 21 261 262 296 241 242 240 258 315 309 298 157 153 143 194 164 332 239 230 232 244 250 263 269 278 279 255 7
348 344 342 344 348 345 344 343 342 340 338 336 335 335 335 329 321 354 292 245 306 347 294 278 217 234 227 161 219 266 170 174 175 166 191 191 236 201 234 262 255 258 220 257 243 326 334
340 338 336 336 332 337 342 340 340 337 335 332 332 334 338 334 36 330 294 322 332 333 360 276 221 246 148 167 269 223 204 144 207 200 199 224 242 246 247 249 234 267 227 254 335 43 284
316 323 330 328 332 327 334 335 338 336 332 329 328 331 336 334 286 318 286 332 317 57 342 271 183 144 166 159 205 237 184 114 194 185 153 238 219 224 243 246 251 249 265 252 318 98 36
305 319 325 330 331 331 330 331 332 332 328 326 325 326 333 339 282 245 311 302 40 50 259 309 156 171 121 223 278 5 141 93 164 196 240 226 263 212 236 253 229 260 213 32 37 55 351
296 316 328 333 330 329 331 327 328 330 327 325 321 317 315 257 237 328 338 26 51 161 316 343 358 340 182 167 238 206 171 183 178 178 242 296 278 274 253 285 292 174 63 348 343 352 243
272 294 313 323 332 332 330 330 328 326 324 323 319 317 253 212 224 266 16 52 162 245 276 331 339 311 192 159 217 214 184 225 231 148 145 207 274 260 241 192 229 202 153 156 210 222 270
255 267 291 308 320 324 327 326 326 326 325 323 323 327 283 250 192 120 80 115 205 221 279 9 340 356 344 11 345 190 194 205 210 181 201 184 254 263 251 250 150 225 151 188 146 41 6
257 265 277 291 304 315 320 323 327 326 324 321 313 332 266 252 143 90 89 215 240 293 17 350 320 307 358 352 331 29 294 229 210 189 175 227 261 259 268 10 290 189 176 93 9 205 260
254 267 272 277 290 305 318 322 328 326 327 319 20 350 263 147 105 55 167 222 283 305 6 341 347 321 333 320 262 312 262 319 63 1 239 208 160 255 312 180 237 315 300 63 125 139 188
251 264 270 264 275 299 312 318 330 333 337 29 7 344 270 16 89 200 177 202 308 282 315 296 285 264 248 326 290 290 229 183 345 17 267 222 195 233 241 232 186 183 232 180 146 229 204
248 259 267 259 255 285 303 313 328 343 23 360 357 267 301 108 195 260 291 283 277 276 274 293 307 313 293 269 291 227 260 318 318 46 32 325 294 253 292 303 136 187 198 200 121 83 198
244 260 262 244 242 267 297 300 320 332 358 68 17 333 311 32 127 159 275 280 273 255 255 254 286 306 310 271 214 270 295 298 313 290 302 246 216 200 230 220 172 203 221 206 164 136 193
244 255 243 226 243 269 279 261 299 319 345 75 268 246 225 311 28 347 62 304 302 307 267 334 303 54 59 315 310 293 306 322 311 256 118 101 259 262 235 223 230 223 217 184 221 207 162
226 237 227 239 253 258 267 247 275 306 347 72 250 6 340 283 282 36 231 211 255 290 298 294 67 332 50 199 233 309 336 7 274 311 232 228 269 346 275 214 220 227 212 213 197 188 243
217 221 233 242 236 241 253 257 260 294 101 249 312 327 112 281 305 98 212 350 337 322 274 6 54 8 330 327 314 283 268 255 248 266 277 247 240 33 279 306 190 245 231 210 208 195 176
217 217 230 223 220 236 241 242 259 264 185 142 263 353 39 279 302 349 328 323 342 339 284 326 13 107 339 317 299 270 248 248 246 232 199 239 143 157 251 320 239 246 182 182 203 213 131
218 220 231 226 223 236 245 234 243 250 231 152 247 253 122 276 360 293 316 335 322 319 334 285 5 9 296 307 308 328 321 298 255 229 207 196 148 243 190 199 282 295 268 158 163 253 193
223 216 227 225 216 234 249 225 238 250 247 153 245 221 213 124 247 317 2 306 288 329 343 333 331 333 6 243 223 231 243 303 259 238 196 184 180 186 186 224 233 292 218 66 76 251 85
215 219 222 208 217 225 243 240 231 246 251 149 250 151 238 223 274 290 217 284 293 21 286 315 344 333 35 253 236 232 245 290 274 245 187 179 167 207 225 230 283 278 196 126 161 240 167
207 213 218 211 226 217 236 256 225 235 250 163 253 186 169 254 277 262 267 273 308 159 204 295 2 65 329 297 330 298 275 236 255 248 230 199 172 191 119 190 251 198 291 163 212 167 130
192 203 205 211 221 212 226 243 237 249 250 178 254 276 228 215 264 290 268 245 229 231 177 228 212 207 216 70 20 316 319 312 314 269 244 241 203 207 181 205 217 272 174 242 186 146 160